Location: Caltech
(34.1382°N, 118.1253°W)
Time: 02:13:37
(UTC-07:00)

PCSat - Visible Passes

Search period start: 18 June 2018 00:00
Search period end: 28 June 2018 00:00
Orbit: 784 x 795 km, 67.1° (Epoch: 17 June)

Date Brightness Start Highest point End Pass type
(mag) Time Alt. Az. Time Alt. Az. Time Alt. Az.
18 Jun 9.4 22:59:46 80° E 22:59:46 80° E 23:05:06 10° NNE visible
19 Jun 12.2 00:41:01 10° WNW 00:43:41 14° NW 00:46:22 10° NNW visible
19 Jun 9.6 22:28:28 55° SE 22:28:47 56° ESE 22:34:06 10° NE visible
20 Jun 11.9 00:09:04 11° W 00:12:31 19° NW 00:16:16 10° N visible
20 Jun 10.0 21:56:50 34° SE 21:57:58 38° ESE 22:02:57 10° NE visible
20 Jun 11.5 23:37:25 12° WSW 23:41:24 25° NW 23:45:52 10° N visible
21 Jun 10.5 21:24:42 19° SE 21:27:09 27° ESE 21:31:39 10° NE visible
21 Jun 11.0 23:05:27 10° WSW 23:10:21 34° WNW 23:15:17 10° N visible
22 Jun 10.9 20:52:45 10° SSE 20:56:23 19° ESE 21:00:03 10° ENE visible
22 Jun 10.4 22:34:08 10° SW 22:39:21 48° WNW 22:44:36 10° NNE visible
23 Jun 9.8 22:03:00 10° SSW 22:08:22 69° WNW 22:13:48 10° NNE visible
24 Jun 9.5 21:32:03 10° SSW 21:37:27 84° ESE 21:42:54 10° NNE visible
24 Jun 12.5 23:19:04 10° WNW 23:21:30 13° NW 23:23:59 10° NNW visible
25 Jun 9.6 21:01:17 10° S 21:06:34 59° ESE 21:11:54 10° NE visible
25 Jun 12.3 22:46:44 10° W 22:50:21 18° NW 22:53:58 10° N visible
26 Jun 10.0 20:30:42 10° S 20:35:43 41° ESE 20:40:47 10° NE visible
26 Jun 11.9 22:14:53 10° WSW 22:19:14 24° NW 22:23:36 10° N visible
27 Jun 11.4 21:43:19 10° WSW 21:48:09 33° WNW 21:53:03 10° N visible
